W4RJF Weather Reports


Display with metric or nautical units.
time (UTC)temp
F
wind
direction
speed
MPH
gust
MPH
rain 1hr
in
rain 24hr
in
rain mn
in
humidity
%
barometer
mb
20260902012008 82 202 0.0 0.0 0.00 0.00 0.00 77 1016.7
20260902011520 82 202 0.0 0.0 0.00 0.00 0.00 77 1016.6
20260902011010 82 202 0.0 0.0 0.00 0.00 0.00 77 1016.7
20260902010511 83 202 0.0 0.0 0.00 0.00 0.00 77 1016.5
20260902010022 82 202 0.0 0.0 0.00 0.00 0.00 77 1016.5
20260902005511 83 202 0.0 0.0 0.00 0.00 0.00 76 1016.4
20260902005011 83 202 0.0 0.0 0.00 0.00 0.00 76 1016.4
20260902004528 83 202 0.0 0.0 0.00 0.00 0.00 75 1016.4
20260902004015 84 202 0.0 0.0 0.00 0.00 0.00 74 1016.3
20260902003515 84 202 0.0 0.0 0.00 0.00 0.00 74 1016.2
20260902003038 84 202 0.0 0.0 0.00 0.00 0.00 74 1016.3
20260902002515 84 202 0.0 0.0 0.00 0.00 0.00 74 1016.3
20260902002016 84 202 0.0 0.0 0.00 0.00 0.00 73 1016.4
20260902001549 84 202 0.0 0.0 0.00 0.00 0.00 74 1016.3
20260902001007 84 202 0.0 0.0 0.00 0.00 0.00 74 1016.2
20260902000509 84 202 0.0 0.0 0.00 0.00 0.00 74 1016.4
20260902000026 85 202 0.0 0.0 0.00 0.00 0.00 73 1016.5
20260901235513 85 202 0.0 0.0 0.00 0.00 0.00 72 1016.6
20260901235013 85 202 0.0 0.0 0.00 0.00 0.00 71 1016.5
20260901234529 86 202 0.0 0.0 0.00 0.00 0.00 70 1016.4
20260901234015 86 202 0.0 0.0 0.00 0.00 0.00 70 1016.5
20260901233512 86 202 0.0 0.0 0.00 0.00 0.00 69 1016.6
20260901233029 87 202 0.0 0.0 0.00 0.00 0.00 68 1016.6
20260901232514 87 202 0.0 0.0 0.00 0.00 0.00 68 1016.6
20260901232016 88 202 0.0 0.0 0.00 0.00 0.00 64 1016.6
20260901231534 88 202 0.0 0.0 0.00 0.00 0.00 63 1016.7
20260901231016 89 198 0.0 2.0 0.00 0.00 0.00 63 1016.7
20260901230516 89 198 0.0 2.0 0.00 0.00 0.00 62 1016.7
20260901230033 89 196 0.0 2.0 0.00 0.00 0.00 61 1016.7
20260901225511 89 196 0.0 0.0 0.00 0.00 0.00 61 1016.6
20260901225012 89 196 0.0 0.0 0.00 0.00 0.00 62 1016.6
20260901224526 90 196 0.0 0.0 0.00 0.00 0.00 61 1016.7
20260901224003 90 196 0.0 0.0 0.00 0.00 0.00 58 1016.6
20260901223503 91 196 0.0 0.0 0.00 0.00 0.00 59 1016.5
20260901223006 91 196 0.0 0.0 0.00 0.00 0.00 56 1016.4
20260901222503 91 196 0.0 0.0 0.00 0.00 0.00 55 1016.5
20260901222003 92 196 0.0 0.0 0.00 0.00 0.00 56 1016.5
20260901221511 92 190 0.0 2.0 0.00 0.00 0.00 55 1016.6
20260901221006 93 190 0.0 2.0 0.00 0.00 0.00 53 1016.7
20260901220508 93 175 0.0 2.0 0.00 0.00 0.00 51 1016.7
20260901220017 93 233 0.0 2.0 0.00 0.00 0.00 55 1016.6
20260901215508 93 9 0.0 2.0 0.00 0.00 0.00 56 1016.6
20260901215010 93 143 0.0 0.0 0.00 0.00 0.00 56 1016.7
20260901214522 93 143 0.0 0.0 0.00 0.00 0.00 55 1016.7
20260901214012 93 143 0.0 0.0 0.00 0.00 0.00 57 1016.7
20260901213514 93 143 0.0 0.0 0.00 0.00 0.00 55 1016.6
20260901213011 93 143 0.0 2.0 0.00 0.00 0.00 54 1016.6
20260901212504 93 238 0.0 2.0 0.00 0.00 0.00 54 1016.6
20260901212007 93 348 0.0 2.0 0.00 0.00 0.00 53 1016.6
20260901211509 93 108 0.0 2.0 0.00 0.00 0.00 52 1016.7
20260901211005 93 223 0.0 0.0 0.00 0.00 0.00 51 1016.6
20260901210507 94 209 0.0 1.0 0.00 0.00 0.00 53 1016.6
20260901210014 93 209 0.0 2.0 0.00 0.00 0.00 51 1016.6
20260901205507 94 100 0.0 2.0 0.00 0.00 0.00 49 1016.6
20260901205008 94 9 0.0 2.0 0.00 0.00 0.00 46 1016.6
20260901204520 95 11 0.0 3.0 0.00 0.00 0.00 46 1016.6
20260901204012 96 209 0.0 3.0 0.00 0.00 0.00 45 1016.6
20260901203512 96 5 1.0 2.0 0.00 0.00 0.00 45 1016.6
20260901203037 96 57 0.0 2.0 0.00 0.00 0.00 46 1016.7
20260901202513 96 328 0.0 2.0 0.00 0.00 0.00 47 1016.7
20260901202015 96 99 0.0 2.0 0.00 0.00 0.00 48 1016.7
20260901201505 94 223 0.0 2.0 0.00 0.00 0.00 49 1016.6
20260901201005 94 235 0.0 2.0 0.00 0.00 0.00 51 1016.7
20260901200503 93 272 0.0 2.0 0.00 0.00 0.00 51 1016.8
20260901200010 94 272 0.0 2.0 0.00 0.00 0.00 49 1016.9
20260901195506 94 271 0.0 1.0 0.00 0.00 0.00 53 1017.0
20260901195007 94 24 0.0 2.0 0.00 0.00 0.00 51 1017.1
20260901194518 95 165 0.0 2.0 0.00 0.00 0.00 50 1017.1
20260901194010 94 207 0.0 4.0 0.00 0.00 0.00 51 1017.1
20260901193512 94 231 1.0 3.0 0.00 0.00 0.00 51 1017.1
20260901193024 94 11 0.0 2.0 0.00 0.00 0.00 49 1017.2
20260901192513 94 265 0.0 2.0 0.00 0.00 0.00 48 1017.2
20260901192014 94 340 0.0 2.0 0.00 0.00 0.00 52 1017.3
20260901191550 95 224 0.0 2.0 0.00 0.00 0.00 52 1017.3
20260901191014 95 165 0.0 2.0 0.00 0.00 0.00 50 1017.4
20260901190504 96 231 0.0 2.0 0.00 0.00 0.00 49 1017.4
20260901190009 94 190 0.0 2.0 0.00 0.00 0.00 51 1017.4
20260901185510 93 46 0.0 2.0 0.00 0.00 0.00 51 1017.4
20260901185005 93 163 0.0 2.0 0.00 0.00 0.00 51 1017.5
20260901184516 94 9 0.0 3.0 0.00 0.00 0.00 50 1017.6
20260901184007 94 105 1.0 3.0 0.00 0.00 0.00 51 1017.6
20260901183507 93 15 1.0 3.0 0.00 0.00 0.00 50 1017.7
20260901183020 94 325 0.0 2.0 0.00 0.00 0.00 49 1017.7
20260901182510 93 288 1.0 3.0 0.00 0.00 0.00 53 1017.7
20260901182012 95 15 1.0 3.0 0.00 0.00 0.00 50 1017.8
20260901181526 94 350 0.0 2.0 0.00 0.00 0.00 53 1017.7
20260901181017 93 324 0.0 2.0 0.00 0.00 0.00 52 1017.8
20260901180514 93 114 0.0 2.0 0.00 0.00 0.00 53 1017.8
20260901180029 92 254 0.0 2.0 0.00 0.00 0.00 53 1017.8
20260901175515 93 42 1.0 2.0 0.00 0.00 0.00 54 1017.9
20260901175005 92 61 0.0 2.0 0.00 0.00 0.00 54 1017.9
20260901174513 92 245 0.0 2.0 0.00 0.00 0.00 55 1018.0
20260901174008 92 207 1.0 2.0 0.00 0.00 0.00 54 1018.1
20260901173507 92 222 0.0 2.0 0.00 0.00 0.00 57 1018.2
20260901173024 91 105 0.0 2.0 0.00 0.00 0.00 55 1018.2
20260901172511 91 238 1.0 2.0 0.00 0.00 0.00 56 1018.2
20260901172013 91 236 0.0 2.0 0.00 0.00 0.00 56 1018.3
20260901171525 91 194 0.0 2.0 0.00 0.00 0.00 58 1018.3
20260901171014 90 241 1.0 2.0 0.00 0.00 0.00 60 1018.4
20260901170514 91 344 0.0 2.0 0.00 0.00 0.00 60 1018.3
20260901170031 91 288 0.0 2.0 0.00 0.00 0.00 61 1018.4
20260901165515 90 259 0.0 2.0 0.00 0.00 0.00 58 1018.4
20260901165015 90 324 0.0 2.0 0.00 0.00 0.00 60 1018.4
20260901164540 89 74 0.0 2.0 0.00 0.00 0.00 60 1018.4
20260901164003 89 252 0.0 2.0 0.00 0.00 0.00 61 1018.5
20260901163506 90 39 0.0 2.0 0.00 0.00 0.00 61 1018.6
20260901163015 89 286 0.0 2.0 0.00 0.00 0.00 62 1018.7
20260901162506 89 341 0.0 3.0 0.00 0.00 0.00 62 1018.8
20260901162014 89 11 0.0 3.0 0.00 0.00 0.00 62 1018.8
20260901161543 89 250 0.0 3.0 0.00 0.00 0.00 63 1018.9
20260901161012 89 292 0.0 1.0 0.00 0.00 0.00 63 1018.9
20260901160516 88 306 0.0 2.0 0.00 0.00 0.00 63 1019.0
20260901160027 88 47 0.0 2.0 0.00 0.00 0.00 65 1019.1
20260901155516 88 352 0.0 2.0 0.00 0.00 0.00 65 1019.1
20260901155016 88 246 0.0 2.0 0.00 0.00 0.00 63 1019.2
20260901154537 88 22 0.0 2.0 0.00 0.00 0.00 63 1019.2
20260901154016 88 202 0.0 2.0 0.00 0.00 0.00 65 1019.3
20260901153523 88 236 0.0 2.0 0.00 0.00 0.00 66 1019.3
20260901153011 87 296 0.0 1.0 0.00 0.00 0.00 66 1019.3
20260901152507 87 232 0.0 1.0 0.00 0.00 0.00 69 1019.3
20260901152009 87 213 0.0 2.0 0.00 0.00 0.00 70 1019.4
20260901151520 86 268 1.0 2.0 0.00 0.00 0.00 70 1019.4
20260901151010 86 352 0.0 2.0 0.00 0.00 0.00 70 1019.5
20260901150513 86 287 0.0 2.0 0.00 0.00 0.00 72 1019.6
20260901150036 86 269 0.0 2.0 0.00 0.00 0.00 72 1019.6
20260901145513 85 350 0.0 2.0 0.00 0.00 0.00 71 1019.6
20260901145015 85 284 0.0 2.0 0.00 0.00 0.00 72 1019.6
20260901144539 85 77 0.0 2.0 0.00 0.00 0.00 73 1019.6
20260901144017 84 277 0.0 1.0 0.00 0.00 0.00 74 1019.7
20260901143516 84 251 0.0 2.0 0.00 0.00 0.00 74 1019.8
20260901143039 84 294 0.0 2.0 0.00 0.00 0.00 73 1019.6
20260901142517 84 48 0.0 2.0 0.00 0.00 0.00 74 1019.6
20260901142017 84 280 0.0 2.0 0.00 0.00 0.00 74 1019.6
20260901141517 83 352 0.0 2.0 0.00 0.00 0.00 74 1019.6
20260901141009 83 315 0.0 2.0 0.00 0.00 0.00 75 1019.5
20260901140510 83 309 0.0 2.0 0.00 0.00 0.00 75 1019.6
20260901140024 83 80 0.0 1.0 0.00 0.00 0.00 75 1019.5
20260901135511 82 9 0.0 2.0 0.00 0.00 0.00 76 1019.5
20260901135015 82 321 0.0 2.0 0.00 0.00 0.00 76 1019.5
20260901134528 82 263 0.0 2.0 0.00 0.00 0.00 78 1019.4
20260901134003 81 9 0.0 0.0 0.00 0.00 0.00 80 1019.4
20260901133504 81 9 0.0 2.0 0.00 0.00 0.00 81 1019.4
20260901133010 81 115 0.0 2.0 0.00 0.00 0.00 81 1019.5
20260901132504 80 344 0.0 1.0 0.00 0.00 0.00 81 1019.5
20260901132005 80 350 0.0 1.0 0.00 0.00 0.00 83 1019.6
20260901131514 79 350 0.0 1.0 0.00 0.00 0.00 83 1019.6
20260901131007 79 180 0.0 1.0 0.00 0.00 0.00 85 1019.5
20260901130508 79 311 0.0 0.0 0.00 0.00 0.00 86 1019.5
20260901130025 79 311 0.0 2.0 0.00 0.00 0.00 87 1019.4
20260901125512 78 15 0.0 2.0 0.00 0.00 0.00 87 1019.5
20260901125005 78 13 0.0 2.0 0.00 0.00 0.00 88 1019.4
20260901124511 77 5 0.0 2.0 0.00 0.00 0.00 89 1019.4
20260901124003 77 5 0.0 1.0 0.00 0.00 0.00 90 1019.4
20260901123504 76 352 0.0 1.0 0.00 0.00 0.00 91 1019.4
20260901123006 76 195 0.0 0.0 0.00 0.00 0.00 92 1019.5
20260901122506 75 195 0.0 0.0 0.00 0.00 0.00 93 1019.5
20260901122013 75 195 0.0 0.0 0.00 0.00 0.00 93 1019.4
20260901121511 75 195 0.0 0.0 0.00 0.00 0.00 93 1019.3
20260901121010 75 195 0.0 0.0 0.00 0.00 0.00 94 1019.3
20260901120509 74 195 0.0 0.0 0.00 0.00 0.00 94 1019.2
20260901120017 74 195 0.0 0.0 0.00 0.00 0.00 94 1019.2
20260901115510 74 195 0.0 0.0 0.00 0.00 0.00 94 1019.1
20260901115010 74 195 0.0 0.0 0.00 0.00 0.00 94 1019.1
20260901114524 74 195 0.0 0.0 0.00 0.00 0.00 94 1019.3
20260901114013 74 195 0.0 0.0 0.00 0.00 0.00 94 1019.2
20260901113504 74 195 0.0 0.0 0.00 0.00 0.00 95 1019.1
20260901113006 73 195 0.0 0.0 0.00 0.00 0.00 95 1019.1
20260901112503 73 195 0.0 0.0 0.00 0.00 0.00 95 1019.0
20260901112005 73 195 0.0 0.0 0.00 0.00 0.00 95 1019.0
20260901111512 73 195 0.0 0.0 0.00 0.00 0.00 95 1018.9
20260901111007 73 195 0.0 0.0 0.00 0.00 0.00 95 1018.8
20260901110506 73 195 0.0 0.0 0.00 0.00 0.00 95 1018.8
20260901110019 73 195 0.0 0.0 0.00 0.00 0.00 95 1018.7
20260901105510 73 195 0.0 0.0 0.00 0.00 0.00 95 1018.8
20260901105011 73 195 0.0 0.0 0.00 0.00 0.00 95 1018.8
20260901104523 73 195 0.0 0.0 0.00 0.00 0.00 95 1018.8
20260901104016 73 195 0.0 0.0 0.00 0.00 0.00 95 1018.7
20260901103511 73 195 0.0 0.0 0.00 0.00 0.00 94 1018.7
20260901103028 73 195 0.0 0.0 0.00 0.00 0.00 94 1018.7
20260901102503 73 195 0.0 0.0 0.00 0.00 0.00 94 1018.6
20260901102004 73 195 0.0 0.0 0.00 0.00 0.00 94 1018.5
20260901101511 73 195 0.0 0.0 0.00 0.00 0.00 94 1018.5
20260901101010 73 195 0.0 0.0 0.00 0.00 0.00 94 1018.4
20260901100509 73 195 0.0 0.0 0.00 0.00 0.00 94 1018.4
20260901100013 73 195 0.0 0.0 0.00 0.00 0.00 94 1018.4
20260901095508 73 195 0.0 0.0 0.00 0.00 0.00 94 1018.3
20260901095008 74 195 0.0 0.0 0.00 0.00 0.00 94 1018.4
20260901094532 74 195 0.0 0.0 0.00 0.00 0.00 94 1018.4
20260901094010 74 195 0.0 0.0 0.00 0.00 0.00 94 1018.4
20260901093512 74 195 0.0 0.0 0.00 0.00 0.00 93 1018.5
20260901093026 74 195 0.0 0.0 0.00 0.00 0.00 93 1018.6
20260901092513 74 195 0.0 0.0 0.00 0.00 0.00 93 1018.6
20260901092014 74 195 0.0 0.0 0.00 0.00 0.00 93 1018.6
20260901091515 74 195 0.0 0.0 0.00 0.00 0.00 93 1018.6
20260901091003 74 195 0.0 0.0 0.00 0.00 0.00 93 1018.6
20260901090505 74 195 0.0 0.0 0.00 0.00 0.00 93 1018.6
20260901090013 74 195 0.0 0.0 0.00 0.00 0.00 93 1018.6
20260901085507 74 195 0.0 0.0 0.00 0.00 0.00 93 1018.6
20260901085010 74 195 0.0 0.0 0.00 0.00 0.00 92 1018.6
20260901084520 75 195 0.0 0.0 0.00 0.00 0.00 92 1018.6
20260901084008 75 195 0.0 0.0 0.00 0.00 0.00 92 1018.6
20260901083509 75 195 0.0 0.0 0.00 0.00 0.00 92 1018.7
20260901083026 75 195 0.0 0.0 0.00 0.00 0.00 92 1018.9
20260901082511 75 195 0.0 0.0 0.00 0.00 0.00 92 1019.0
20260901082013 75 195 0.0 0.0 0.00 0.00 0.00 91 1019.1
20260901081532 75 195 0.0 0.0 0.00 0.00 0.00 92 1019.1
20260901081015 75 195 0.0 0.0 0.00 0.00 0.00 91 1019.1
20260901080515 75 195 0.0 0.0 0.00 0.00 0.00 91 1019.0
20260901080014 75 195 0.0 0.0 0.00 0.00 0.00 91 1019.0
20260901075507 75 195 0.0 0.0 0.00 0.00 0.00 91 1019.0
20260901075010 75 195 0.0 0.0 0.00 0.00 0.00 91 1018.9
20260901074514 75 195 0.0 0.0 0.00 0.00 0.00 91 1018.9
20260901074009 76 195 0.0 0.0 0.00 0.00 0.00 91 1018.9
20260901073508 76 195 0.0 0.0 0.00 0.00 0.00 91 1018.9
20260901073026 76 195 0.0 0.0 0.00 0.00 0.00 91 1019.0
20260901072511 76 195 0.0 0.0 0.00 0.00 0.00 91 1019.0
20260901072013 76 195 0.0 0.0 0.00 0.00 0.00 91 1019.0
20260901071528 76 195 0.0 0.0 0.00 0.00 0.00 91 1019.1
20260901071012 76 195 0.0 0.0 0.00 0.00 0.00 91 1019.1
20260901070514 76 195 0.0 0.0 0.00 0.00 0.00 91 1019.1
20260901070030 76 195 0.0 0.0 0.00 0.00 0.00 91 1019.1
20260901065515 76 195 0.0 0.0 0.00 0.00 0.00 91 1019.1
20260901065009 76 195 0.0 0.0 0.00 0.00 0.00 91 1019.0
20260901064519 76 195 0.0 0.0 0.00 0.00 0.00 91 1019.1
20260901064008 76 195 0.0 0.0 0.00 0.00 0.00 91 1019.1
20260901063508 76 195 0.0 0.0 0.00 0.00 0.00 91 1019.1
20260901063025 76 195 0.0 0.0 0.00 0.00 0.00 91 1019.2
20260901062508 76 195 0.0 0.0 0.00 0.00 0.00 91 1019.2
20260901062013 76 195 0.0 0.0 0.00 0.00 0.00 90 1019.3
20260901061529 76 195 0.0 0.0 0.00 0.00 0.00 90 1019.3
20260901061018 76 195 0.0 0.0 0.00 0.00 0.00 90 1019.2
20260901060515 76 195 0.0 0.0 0.00 0.00 0.00 90 1019.3
20260901060030 76 195 0.0 0.0 0.00 0.00 0.00 90 1019.3
20260901055517 76 195 0.0 0.0 0.00 0.00 0.00 90 1019.3
20260901055016 76 195 0.0 0.0 0.00 0.00 0.00 90 1019.4
20260901054534 76 195 0.0 0.0 0.00 0.00 0.00 90 1019.4
20260901054018 76 195 0.0 0.0 0.00 0.00 0.00 89 1019.4
20260901053506 76 195 0.0 0.0 0.00 0.00 0.00 89 1019.5
20260901053018 76 195 0.0 0.0 0.00 0.00 0.00 89 1019.5
20260901052507 76 195 0.0 0.0 0.00 0.00 0.00 89 1019.5
20260901052011 76 195 0.0 0.0 0.00 0.00 0.00 89 1019.6
20260901051527 76 195 0.0 0.0 0.00 0.00 0.00 89 1019.5
20260901051011 76 195 0.0 2.0 0.00 0.00 0.00 89 1019.5
20260901050512 76 195 0.0 2.0 0.00 0.00 0.00 88 1019.6
20260901050029 76 195 0.0 0.0 0.00 0.00 0.00 88 1019.5
20260901045511 76 195 0.0 0.0 0.00 0.00 0.00 88 1019.7
20260901045013 76 195 0.0 0.0 0.00 0.00 0.00 87 1019.6
20260901044546 76 195 0.0 0.0 0.00 0.00 0.00 87 1019.6
20260901044018 77 195 0.0 0.0 0.00 0.00 0.00 86 1019.5
20260901043518 77 195 0.0 0.0 0.00 0.00 0.00 86 1019.4
20260901043034 77 198 0.0 0.0 0.00 0.00 0.00 85 1019.4
20260901042505 77 197 0.0 0.0 0.00 0.00 0.00 85 1019.2
20260901042007 77 197 0.0 0.0 0.00 0.00 0.00 85 1019.3
20260901041527 77 195 0.0 0.0 0.00 0.00 0.00 84 1019.3
20260901041009 77 195 0.0 1.0 0.00 0.00 0.00 84 1019.3
20260901040513 77 195 0.0 2.0 0.00 0.00 0.00 83 1019.3
20260901040028 77 195 0.0 2.0 0.00 0.00 0.00 83 1019.2
20260901035512 77 195 0.0 2.0 0.00 0.00 0.00 84 1019.1
20260901035012 76 207 0.0 2.0 0.00 0.00 0.00 85 1019.2
20260901034535 76 188 0.0 0.0 0.00 0.00 0.00 87 1019.2
20260901034014 76 188 0.0 0.0 0.00 0.00 0.00 87 1019.2
20260901033515 76 188 0.0 0.0 0.00 0.00 0.00 87 1019.1
20260901033049 76 188 0.0 0.0 0.00 0.00 0.00 87 1019.0
20260901032517 76 188 0.0 0.0 0.00 0.00 0.00 87 1019.0
20260901032017 76 188 0.0 0.0 0.00 0.00 0.00 87 1019.1
20260901031521 76 188 0.0 0.0 0.00 0.00 0.00 87 1019.2
20260901031007 76 188 0.0 0.0 0.00 0.00 0.00 86 1019.1
20260901030511 76 188 0.0 0.0 0.00 0.00 0.00 86 1019.1
20260901030034 77 188 0.0 0.0 0.00 0.00 0.00 85 1019.1
20260901025510 77 188 0.0 0.0 0.00 0.00 0.00 85 1019.1
20260901025012 77 188 0.0 0.0 0.00 0.00 0.00 85 1019.2
20260901024531 77 188 0.0 0.0 0.00 0.00 0.00 85 1019.2
20260901024017 77 188 0.0 0.0 0.00 0.00 0.00 85 1019.2
20260901023513 77 188 0.0 0.0 0.00 0.00 0.00 84 1019.2
20260901023033 77 188 0.0 0.0 0.00 0.00 0.00 83 1019.2
20260901022517 77 188 0.0 0.0 0.00 0.00 0.00 83 1019.1
20260901022017 77 188 0.0 0.0 0.00 0.00 0.00 83 1019.0
20260901021544 78 188 0.0 0.0 0.00 0.00 0.00 83 1019.1
20260901021017 78 188 0.0 0.0 0.00 0.00 0.00 82 1019.2
20260901020519 78 188 0.0 0.0 0.00 0.00 0.00 82 1019.2
20260901020031 78 188 0.0 0.0 0.00 0.00 0.00 81 1019.2
20260901015511 78 188 0.0 0.0 0.00 0.00 0.00 81 1019.0
20260901015013 79 188 0.0 0.0 0.00 0.00 0.00 81 1019.1
20260901014527 79 188 0.0 0.0 0.00 0.00 0.00 80 1018.9
20260901014015 79 188 0.0 0.0 0.00 0.00 0.00 81 1018.9
20260901013513 79 188 0.0 0.0 0.00 0.00 0.00 80 1019.0
20260901013041 79 188 0.0 0.0 0.00 0.00 0.00 80 1019.1
20260901012513 79 188 0.0 0.0 0.00 0.00 0.00 80 1018.9